Location: Freistadt
(48.5112°N, 14.5013°E)
Time: 15:45:29
(UTC+02:00)

CAS-6 - Visible Passes

Search period start: 27 March 2023 00:00
Search period end: 06 April 2023 00:00
Orbit: 612 x 632 km, 97.9° (Epoch: 27 March)

Date Brightness Start Highest point End Pass type
(mag) Time Alt. Az. Time Alt. Az. Time Alt. Az.
27 Mar ? 22:06:33 18° NE 22:06:33 18° NE 22:08:18 10° NNE visible
27 Mar ? 23:43:44 19° NNW 23:43:44 19° NNW 23:45:06 10° NNW visible
28 Mar ? 22:24:31 22° NNE 22:24:31 22° NNE 22:26:32 10° N visible
29 Mar ? 00:01:43 16° NW 00:01:43 16° NW 00:02:45 10° NNW visible
29 Mar ? 22:42:29 26° NNE 22:42:29 26° NNE 22:44:38 10° N visible
30 Mar ? 00:19:41 12° NW 00:19:41 12° NW 00:20:14 10° NW visible
30 Mar ? 23:00:26 29° N 23:00:26 29° N 23:02:38 10° N visible
31 Mar ? 21:41:12 13° NE 21:41:12 13° NE 21:42:46 10° NNE visible
31 Mar ? 23:18:24 29° NNW 23:18:24 29° NNW 23:20:32 10° NNW visible
01 Apr ? 21:59:10 18° NE 21:59:10 18° NE 22:01:20 10° NNE visible
01 Apr ? 23:36:21 26° NNW 23:36:21 26° NNW 23:38:21 10° NNW visible
02 Apr ? 22:17:07 23° NE 22:17:07 23° NE 22:19:37 10° N visible
02 Apr ? 23:54:19 21° NW 23:54:19 21° NW 23:56:03 10° NNW visible
03 Apr ? 22:35:04 30° NNE 22:35:04 30° NNE 22:37:45 10° N visible
04 Apr ? 00:12:16 17° NW 00:12:16 17° NW 00:13:36 10° NW visible
04 Apr ? 22:53:01 36° NNE 22:53:01 36° NNE 22:55:46 10° N visible
05 Apr ? 00:30:13 12° NW 00:30:13 12° NW 00:30:54 10° NW visible
05 Apr ? 21:33:46 12° ENE 21:33:53 12° NE 21:35:29 10° NE visible
05 Apr ? 23:10:58 38° N 23:10:58 38° N 23:13:42 10° NNW visible
